NOAA 16 DEB, 41711

Orbit data source: Space-Track

NOAA 16 DEB, 41711 is space debris in SSO originally from a launch on Thu, 21 Sep 2000 UTC launched from the Air Force Western Test Range (AFWTR). Debris objects in space refer to the collection of defunct objects orbiting the Earth. Examples of debris include non-operational satellites, rocket bodies, and fragments generated from explosions, collisions, or faulty payload assembly.

Loading next visibility...
Identifier
41711, 2000-055PR
Orbit
SSO
Country
Flag of USUS
Related business
Manufacturer
Unknown
Mission
Spacecraft
Bus & Motor
Unknown
Mass
Unknown
Launch date (UTC)
2000-09-21 (25 years ago)
Launch vehicle
Unknown
Launch site
Air Force Western Test Range (AFWTR)
Object type
Payload
Rocket body
Debris
Shape & HBR
Unknown shape, 0.1 m
Radar Cross Section
Small (<0.1 m²)

Expand to show TLE details & history
Last TLE update: 15 hours ago

TLE from 15 hours ago
0 NOAA 16 DEB
1 41711U 00055PR  25349.56105498  .00006374  00000-0  18167-2 0  9990
2 41711  98.7868 104.5723 0009190   6.8077 353.3237 14.45560437501563
Epoch: 2025-12-15T13:27Z
TLE epoch observation values (Epoch: 2025-12-15T13:27:55.150Z)
Latitude
0.00004°
Longitude
178.13465°
Altitude
736.634 km
Speed
7.49 km/s
True Right ascension
06h 58m 17s
True Declination
0° 00' 00"
Sunlit
Object was in full shadow at epoch
Visualization orbit readout
Latitude
Unknown
Longitude
Unknown
Altitude
Unknown
Speed
Unknown
Apparent Right ascension
Unknown
Apparent Declination
Unknown
Sunlit
N/A
Visualization observer readout
Local Sidereal Time
03:26:43
Azimuth
Unknown
Elevation
Unknown
Doppler factor
Unknown
Orbital elements
Apogee altitude
743.853 km
Perigee altitude
730.775 km
Semi-major axis
7,115.451 km
Eccentricity
0.00092
Inclination
98.7868°
RAAN
104.5723°
Arg. of periapsis
6.8077°
True anomaly
353.31144°
Mean anomaly
353.3237°
Eccentric anomaly
353.31757°
Mean motion
3.61609 °/min
Orbital period
99.55 mins
BSTAR
0.0018167
Loading maneuver chart data...
Computing Atmospheric mass density...
Loading historical data...
Loading historical data...
Loading historical data...
Loading historical data...
Loading historical data...
Loading historical data...
Loading historical data...

Documentation

Showing up to 5 results
|